Location: Buenos Aires
(34.6076°S, 58.4371°W)
Time: 12:44:08
(UTC-03:00)

Envisat - Pass Details

Date: 27 June 2021
Orbit: 764 x 766 km, 98.2° (Epoch: 03 August)

Event Time Altitude Azimuth Distance (km) Brightness Sun altitude
Rises 19:19:10 0° 185° (S) 3,266 6.1 -17.3°
Reaches altitude 10° 19:22:00 10° 201° (SSW) 2,331 5.5 -17.9°
Maximum altitude 19:25:43 21° 247° (WSW) 1,704 5.4 -18.6°
Drops below altitude 10° 19:29:25 10° 294° (WNW) 2,312 6.7 -19.3°
Sets 19:32:14 0° 310° (NW) 3,229 7.4 -19.9°
